TimeCST,TemperatureF,Dew PointF,Humidity,Sea Level PressureIn,VisibilityMPH,Wind Direction,Wind SpeedMPH,Gust SpeedMPH,PrecipitationIn,Events,Conditions,WindDirDegrees,DateUTC
12:15 AM,23.0,19.4,86,30.45,10.0,WSW,6.9,-,N/A,,Clear,240,2013-11-27 06:15:00
12:35 AM,23.0,19.4,86,30.45,10.0,WSW,6.9,-,N/A,,Clear,240,2013-11-27 06:35:00
12:55 AM,21.2,17.6,86,30.45,10.0,West,3.5,-,N/A,,Clear,260,2013-11-27 06:55:00
1:15 AM,21.2,19.4,93,30.44,10.0,WSW,4.6,-,N/A,,Clear,250,2013-11-27 07:15:00
1:35 AM,21.2,17.6,86,30.44,10.0,WSW,5.8,-,N/A,,Clear,250,2013-11-27 07:35:00
1:55 AM,21.2,19.4,93,30.43,10.0,SW,5.8,-,N/A,,Clear,230,2013-11-27 07:55:00
2:15 AM,21.2,17.6,86,30.43,10.0,SW,6.9,-,N/A,,Clear,230,2013-11-27 08:15:00
2:35 AM,21.2,17.6,86,30.44,10.0,SW,8.1,-,N/A,,Clear,230,2013-11-27 08:35:00
2:55 AM,19.4,17.6,93,30.44,10.0,SW,9.2,-,N/A,,Clear,230,2013-11-27 08:55:00
3:15 AM,19.4,17.6,93,30.44,10.0,SW,8.1,-,N/A,,Clear,230,2013-11-27 09:15:00
3:35 AM,19.4,17.6,93,30.43,10.0,SW,4.6,-,N/A,,Clear,230,2013-11-27 09:35:00
3:55 AM,19.4,15.8,86,30.43,10.0,WSW,3.5,-,N/A,,Clear,250,2013-11-27 09:55:00
4:15 AM,19.4,17.6,93,30.43,10.0,WSW,3.5,-,N/A,,Clear,250,2013-11-27 10:15:00
4:35 AM,19.4,17.6,93,30.42,10.0,SW,3.5,-,N/A,,Clear,220,2013-11-27 10:35:00
4:55 AM,19.4,17.6,93,30.43,10.0,SW,5.8,-,N/A,,Clear,230,2013-11-27 10:55:00
5:15 AM,19.4,15.8,86,30.43,10.0,SW,6.9,-,N/A,,Clear,230,2013-11-27 11:15:00
5:35 AM,19.4,15.8,86,30.43,10.0,SSW,5.8,-,N/A,,Clear,200,2013-11-27 11:35:00
5:55 AM,17.6,15.8,93,30.42,10.0,South,4.6,-,N/A,,Clear,190,2013-11-27 11:55:00
6:15 AM,17.6,14.0,86,30.42,10.0,South,4.6,-,N/A,,Clear,180,2013-11-27 12:15:00
6:35 AM,17.6,14.0,86,30.42,10.0,SSE,6.9,-,N/A,,Clear,160,2013-11-27 12:35:00
6:55 AM,17.6,14.0,86,30.42,10.0,SSE,6.9,-,N/A,,Clear,150,2013-11-27 12:55:00
7:15 AM,17.6,14.0,86,30.42,10.0,SSE,5.8,-,N/A,,Clear,150,2013-11-27 13:15:00
7:35 AM,17.6,14.0,86,30.42,10.0,SW,6.9,-,N/A,,Clear,230,2013-11-27 13:35:00
7:55 AM,17.6,14.0,86,30.42,10.0,WSW,4.6,-,N/A,,Clear,240,2013-11-27 13:55:00
8:15 AM,19.4,15.8,86,30.42,10.0,WSW,3.5,-,N/A,,Clear,240,2013-11-27 14:15:00
8:35 AM,21.2,17.6,86,30.42,10.0,Calm,Calm,-,N/A,,Clear,0,2013-11-27 14:35:00
8:55 AM,23.0,19.4,86,30.41,10.0,South,3.5,-,N/A,,Clear,180,2013-11-27 14:55:00
9:15 AM,28.4,21.2,74,30.41,10.0,South,3.5,-,N/A,,Clear,190,2013-11-27 15:15:00
9:35 AM,30.2,23.0,75,30.41,10.0,SSW,4.6,-,N/A,,Clear,200,2013-11-27 15:35:00
9:55 AM,32.0,24.8,75,30.40,10.0,SSW,6.9,-,N/A,,Clear,200,2013-11-27 15:55:00
10:15 AM,33.8,23.0,65,30.40,10.0,South,6.9,-,N/A,,Clear,180,2013-11-27 16:15:00
10:35 AM,35.6,23.0,60,30.39,10.0,South,6.9,-,N/A,,Clear,180,2013-11-27 16:35:00
10:55 AM,37.4,21.2,52,30.37,10.0,South,8.1,-,N/A,,Clear,170,2013-11-27 16:55:00
11:15 AM,39.2,21.2,49,30.37,10.0,South,8.1,-,N/A,,Clear,190,2013-11-27 17:15:00
11:35 AM,41.0,21.2,45,30.35,10.0,South,10.4,-,N/A,,Clear,190,2013-11-27 17:35:00
11:55 AM,42.8,21.2,42,30.35,10.0,SSW,9.2,-,N/A,,Clear,200,2013-11-27 17:55:00
12:15 PM,42.8,21.2,42,30.33,10.0,South,10.4,-,N/A,,Clear,180,2013-11-27 18:15:00
12:35 PM,44.6,21.2,39,30.32,10.0,SSE,8.1,17.3,N/A,,Clear,160,2013-11-27 18:35:00
12:55 PM,44.6,21.2,39,30.30,10.0,South,13.8,-,N/A,,Clear,170,2013-11-27 18:55:00
1:15 PM,44.6,23.0,43,30.29,10.0,South,10.4,-,N/A,,Clear,190,2013-11-27 19:15:00
1:35 PM,46.4,23.0,40,30.28,10.0,South,12.7,18.4,N/A,,Clear,190,2013-11-27 19:35:00
1:55 PM,46.4,23.0,40,30.27,10.0,SSW,13.8,20.7,N/A,,Clear,210,2013-11-27 19:55:00
2:15 PM,46.4,24.8,43,30.26,10.0,South,11.5,18.4,N/A,,Clear,180,2013-11-27 20:15:00
2:35 PM,48.2,24.8,40,30.25,10.0,South,12.7,-,N/A,,Clear,180,2013-11-27 20:35:00
2:55 PM,48.2,24.8,40,30.24,10.0,South,12.7,18.4,N/A,,Clear,180,2013-11-27 20:55:00
3:15 PM,48.2,24.8,40,30.23,10.0,South,16.1,-,N/A,,Clear,180,2013-11-27 21:15:00
3:35 PM,48.2,24.8,40,30.23,10.0,South,13.8,-,N/A,,Clear,180,2013-11-27 21:35:00
3:55 PM,48.2,26.6,43,30.22,10.0,South,11.5,-,N/A,,Clear,170,2013-11-27 21:55:00
4:15 PM,46.4,26.6,46,30.21,10.0,South,12.7,-,N/A,,Clear,180,2013-11-27 22:15:00
4:35 PM,46.4,24.8,43,30.21,10.0,South,15.0,-,N/A,,Clear,180,2013-11-27 22:35:00
4:55 PM,44.6,26.6,49,30.21,10.0,South,13.8,18.4,N/A,,Clear,190,2013-11-27 22:55:00
5:15 PM,42.8,26.6,53,30.21,10.0,South,11.5,-,N/A,,Clear,190,2013-11-27 23:15:00
5:35 PM,41.0,26.6,57,30.20,10.0,South,11.5,-,N/A,,Clear,190,2013-11-27 23:35:00
5:55 PM,41.0,26.6,57,30.20,10.0,South,13.8,-,N/A,,Clear,190,2013-11-27 23:55:00
6:15 PM,39.2,26.6,61,30.20,10.0,SSW,13.8,-,N/A,,Clear,200,2013-11-28 00:15:00
6:35 PM,37.4,26.6,65,30.20,10.0,SSW,13.8,-,N/A,,Clear,200,2013-11-28 00:35:00
6:55 PM,37.4,26.6,65,30.20,10.0,SSW,15.0,-,N/A,,Clear,200,2013-11-28 00:55:00
7:15 PM,37.4,28.4,70,30.19,10.0,SSW,16.1,20.7,N/A,,Clear,200,2013-11-28 01:15:00
7:35 PM,37.4,28.4,70,30.19,10.0,SSW,16.1,24.2,N/A,,Clear,200,2013-11-28 01:35:00
7:55 PM,37.4,28.4,70,30.19,10.0,SSW,16.1,23.0,N/A,,Clear,200,2013-11-28 01:55:00
8:15 PM,37.4,28.4,70,30.19,10.0,SSW,16.1,23.0,N/A,,Clear,210,2013-11-28 02:15:00
8:35 PM,35.6,28.4,75,30.19,10.0,SSW,18.4,-,N/A,,Clear,210,2013-11-28 02:35:00
8:55 PM,35.6,28.4,75,30.18,10.0,SSW,19.6,26.5,N/A,,Clear,200,2013-11-28 02:55:00
9:15 PM,35.6,26.6,70,30.18,10.0,SSW,20.7,25.3,N/A,,Clear,210,2013-11-28 03:15:00
9:35 PM,35.6,26.6,70,30.18,10.0,SSW,20.7,25.3,N/A,,Clear,200,2013-11-28 03:35:00
9:55 PM,35.6,26.6,70,30.18,10.0,SSW,18.4,25.3,N/A,,Clear,200,2013-11-28 03:55:00
10:15 PM,35.6,26.6,70,30.18,10.0,SSW,16.1,25.3,N/A,,Clear,200,2013-11-28 04:15:00
10:35 PM,35.6,26.6,70,30.18,10.0,SSW,18.4,25.3,N/A,,Clear,210,2013-11-28 04:35:00
10:55 PM,35.6,26.6,70,30.18,10.0,SSW,17.3,21.9,N/A,,Clear,210,2013-11-28 04:55:00
11:15 PM,35.6,26.6,70,30.17,10.0,SSW,17.3,20.7,N/A,,Clear,210,2013-11-28 05:15:00
11:35 PM,35.6,26.6,70,30.17,10.0,SSW,17.3,-,N/A,,Clear,210,2013-11-28 05:35:00
11:55 PM,35.6,26.6,70,30.17,10.0,SSW,16.1,23.0,N/A,,Clear,210,2013-11-28 05:55:00